Weather History for KLGA - December, 2011

Change the Weather History Date:

Friday, December 23, 2011

  Actual Average Record
Temperature  
Mean Temperature 43 °F 36 °F  
Max Temperature 49 °F 42 °F 66 °F (1990)
Min Temperature 36 °F 30 °F 7 °F (1989)
Degree Days  
Heating Degree Days 22 29  
Month to date heating degree days 471 589  
Since 1 July heating degree days 1093 1364  
Cooling Degree Days 0 0  
Month to date cooling degree days 0 0  
Year to date cooling degree days 1375 1214  
Moisture  
Dew Point 36 °F    
Average Humidity 72    
Maximum Humidity 93    
Minimum Humidity 51    
Precipitation  
Precipitation 0.76 in 0.11 in 0.77 in (2006)
Month to date precipitation 2.74 2.71  
Year to date precipitation 64.16 43.88  
Snow  
Snow 0.00 in 0.20 in 7.20 in (1963)
Month to date snowfall 0.0 3.3  
Since 1 July snowfall 1.7 3.6  
Snow Depth 0.00 in    
Sea Level Pressure  
Sea Level Pressure 29.98 in    
Wind  
Wind Speed 13 mph (NNW)    
Max Wind Speed 24 mph    
Max Gust Speed 31 mph    
Visibility 8 miles    
Events Rain    
T = Trace of Precipitation, MM = Missing Value Source: NWS Daily Summary

Daily Weather History Graph

Daily Weather History Graph

Search for Another Location

Airport or City:

Trip Planner

Search our weather history database for the weather conditions in past years. The results will help you decide how hot, cold, wet, or windy it might be!

Date:

Astronomy

Dec. 23, 2011 Rise Set
Actual Time 7:17 AM EST 4:32 PM EST
Civil Twilight 6:46 AM EST 5:03 PM EST
Nautical Twilight 6:11 AM EST 5:37 PM EST
Astronomical Twilight 5:38 AM EST 6:10 PM EST
Moon 6:03 AM EST (12/23) 3:37 PM EST (12/23)
Length of Visible Light 10h 16m
Length of Day
9h 14m
Waning Crescent, 1% of the Moon is Illuminated
Dec 23
Waning Crescent
Dec 24
New
Jan 1
First Quarter
Jan 9
Full
Jan 16
Last Quarter

Hourly Weather History & Observations

Time (EST) Temp. Windchill Dew Point Humidity Pressure Visibility Wind Dir Wind Speed Gust Speed Precip Events Conditions
12:51 AM 46.9 °F - 43.0 °F 86% 29.92 in 5.0 mi ENE 4.6 mph - 0.04 in Rain Heavy Rain
1:51 AM 46.0 °F 42.5 °F 43.0 °F 89% 29.88 in 4.0 mi NE 6.9 mph - 0.18 in Rain Rain
2:06 AM 46.4 °F 42.4 °F 42.8 °F 87% 29.86 in 4.0 mi NE 8.1 mph - 0.06 in Rain Heavy Rain
2:38 AM 46.4 °F 40.7 °F 44.6 °F 93% 29.82 in 4.0 mi ENE 12.7 mph - 0.16 in Rain Rain
2:51 AM 46.0 °F 41.0 °F 44.1 °F 93% 29.82 in 4.0 mi NE 10.4 mph - 0.22 in Rain Heavy Rain
3:25 AM 46.4 °F 42.4 °F 44.6 °F 93% 29.84 in 3.0 mi NNE 8.1 mph - 0.17 in Rain Heavy Rain
3:47 AM 46.4 °F 41.1 °F 44.6 °F 93% 29.81 in 7.0 mi ENE 11.5 mph - 0.22 in Rain Light Rain
3:51 AM 46.0 °F 41.0 °F 44.1 °F 93% 29.81 in 7.0 mi ENE 10.4 mph - 0.23 in Rain Light Rain
4:51 AM 46.0 °F 41.0 °F 44.1 °F 93% 29.81 in 4.0 mi NNE 10.4 mph - 0.08 in Rain Light Rain
5:51 AM 46.0 °F 40.6 °F 43.0 °F 89% 29.83 in 7.0 mi North 11.5 mph - 0.01 in   Overcast
6:26 AM 46.4 °F 41.9 °F 42.8 °F 87% 29.85 in 10.0 mi North 9.2 mph - 0.00 in Rain Light Rain
6:51 AM 46.0 °F 41.4 °F 42.1 °F 86% 29.85 in 10.0 mi North 9.2 mph - 0.00 in Rain Light Rain
7:51 AM 46.0 °F 39.6 °F 42.1 °F 86% 29.90 in 10.0 mi North 15.0 mph - 0.00 in   Overcast
8:51 AM 46.0 °F 41.4 °F 41.0 °F 83% 29.94 in 10.0 mi NNW 9.2 mph - N/A   Mostly Cloudy
9:51 AM 46.9 °F - 39.9 °F 77% 29.97 in 10.0 mi NW 11.5 mph - N/A   Mostly Cloudy
10:51 AM 48.0 °F - 37.9 °F 68% 29.98 in 10.0 mi NW 13.8 mph - N/A   Scattered Clouds
11:36 AM 48.2 °F - 35.6 °F 62% 29.98 in 10.0 mi NW 19.6 mph - N/A   Mostly Cloudy
11:51 AM 48.0 °F - 36.0 °F 63% 29.98 in 10.0 mi NW 19.6 mph - N/A   Mostly Cloudy
12:05 PM 46.4 °F 39.2 °F 35.6 °F 66% 29.99 in 10.0 mi NW 18.4 mph - N/A   Mostly Cloudy
12:51 PM 46.9 °F - 34.0 °F 61% 30.00 in 10.0 mi NW 23.0 mph 31.1 mph N/A   Mostly Cloudy
1:51 PM 46.9 °F - 32.0 °F 56% 30.02 in 10.0 mi NW 15.0 mph 24.2 mph N/A   Mostly Cloudy
2:51 PM 46.9 °F - 32.0 °F 56% 30.05 in 10.0 mi NW 17.3 mph 25.3 mph N/A   Mostly Cloudy
3:51 PM 45.0 °F 38.5 °F 30.0 °F 56% 30.08 in 10.0 mi NW 13.8 mph 21.9 mph N/A   Scattered Clouds
4:51 PM 44.6 °F 38.4 °F 30.2 °F 57% 30.09 in 10.0 mi NW 12.7 mph - N/A   Scattered Clouds
5:51 PM 44.1 °F 37.1 °F 30.0 °F 58% 30.13 in 10.0 mi NW 15.0 mph - N/A   Clear
6:51 PM 43.0 °F 35.7 °F 28.0 °F 56% 30.15 in 10.0 mi NW 15.0 mph 23.0 mph N/A   Scattered Clouds
7:51 PM 42.8 °F 35.4 °F 26.6 °F 53% 30.17 in 10.0 mi NW 15.0 mph - N/A   Partly Cloudy
8:51 PM 41.0 °F 32.5 °F 25.0 °F 53% 30.20 in 10.0 mi NNW 17.3 mph - N/A   Partly Cloudy
9:51 PM 39.9 °F 32.5 °F 24.1 °F 53% 30.21 in 10.0 mi NNW 12.7 mph - N/A   Partly Cloudy
10:51 PM 37.9 °F 29.2 °F 21.9 °F 53% 30.21 in 10.0 mi NNW 15.0 mph - N/A   Clear
11:51 PM 37.0 °F 27.4 °F 21.9 °F 54% 30.22 in 10.0 mi NW 17.3 mph 21.9 mph N/A   Clear